Regional Weather Roundup
Issued by NWS Green Bay, WI

Home | Current Version | Previous Version | Graphics & Text | Print | Product List | Glossary Off
Versions: 1 2 3 4 5 6 7 8 9 10 11 12 13 14 15 16 17 18 19 20 21 22 23 24 25 26 27 28 29 30 31 32 33 34 35 36 37 38 39 40 41 42 43 44 45 46 47 48 49 50

000
ASUS43 KGRB 042100
RWRGRB

NORTH-CENTRAL AND NORTHEAST WISCONSIN REGIONAL WEATHER ROUNDUP
NATIONAL WEATHER SERVICE GREEN BAY WI
400 PM CDT WED MAY 04 2016

WIZ005-009-010>012-018-019-042200-
NORTH CENTRAL WISCONSIN

CITY           SKY/WX    TMP DP  RH WIND       PRES   REMARKS
IRONWOOD         N/A     48  30  49 NE8       29.94F
MANITOWISH WTR NOT AVBL
ARBOR VITAE    NOT AVBL
EAGLE RIVER    NOT AVBL
LAND O LAKES   NOT AVBL
RHINELANDER    MOSUNNY   48  31  51 N13G22    29.92R
PHILLIPS       NOT AVBL
ANTIGO         NOT AVBL
TOMAHAWK       NOT AVBL
MERRILL        NOT AVBL
$$

WIZ013-073-042200-
NORTHEAST WISCONSIN

CITY           SKY/WX    TMP DP  RH WIND       PRES   REMARKS
IRON MOUNTAIN  CLOUDY    45  31  58 NW23G31   29.89R
MARINETTE      CLOUDY    50  34  53 N21       29.86R
$$

WIZ017-030-035>037-045-042200-
CENTRAL WISCONSIN

CITY           SKY/WX    TMP DP  RH WIND       PRES   REMARKS
MEDFORD        NOT AVBL
WAUSAU         SUNNY     58  31  35 N18G24    29.85R
MOSINEE        MOSUNNY   57  30  35 N21G26    29.87R
MARSHFIELD     SUNNY     60  23  24 N22G29    29.85S
WISC RAPIDS    SUNNY     61  18  18 N16G30    29.85S
STEVENS POINT  NOT AVBL
WAUPACA        NOT AVBL
SHAWANO        NOT AVBL
CLINTONVILLE   NOT AVBL
WAUTOMA        MOSUNNY   60  30  32 N17G25    29.81F
$$

WIZ038-039-048-051-042200-
FOX VALLEY

CITY           SKY/WX    TMP DP  RH WIND       PRES   REMARKS
NWS GREEN BAY  CLOUDY    52  36  54 N16G25    29.83R
APPLETON       PTSUNNY   54  30  40 N18G25    29.81S
OSHKOSH        CLOUDY    54  34  46 N18G28    29.81S
FOND DU LAC    CLOUDY    54  36  50 N18G24    29.81F
$$

WIZ022-050-052-042200-
EAST CENTRAL WISCONSIN

CITY           SKY/WX    TMP DP  RH WIND       PRES   REMARKS
EPHRAIM        NOT AVBL
STURGEON BAY   PTSUNNY   46  34  61 N21G30    29.86R
MANITOWOC      NOT AVBL
SHEBOYGAN      CLOUDY    50  36  58 N13G23    29.80S
$$

LMZ563-521-522-541>543-042200-
LAKESHORE

STATION/POSITION TIME  TEMP    WIND        PRES    VSBY  WAVE
                       AIR SEA DIR/SP/G                  HT/PER
                 (UTC) (F)     (DEG/KT/KT) (MB)    (MI)  (FT/S)
SHEBOYGAN LKSHOR 2000   47      10/ 18/ 20 1010.0R
KEWAUNEE LKSHORE 2000   48      10/ 15/ 21 1009.1R
ALGOMA MARINA    2000           10/ 21/ 30   N/A
NORTHPORT PIER   2004   41     340/ 24     1010.8R
N MID LAKE BUOY  1950   41 39  330/ 17/ 21 1009.4R         3/ 5
CHAMBERS ISLAND  2000   45     350/ 13/ 17 1010.8R
MENOMINEE LKSHOR 2000   47     350/ 25/ 30 1009.2R
$$




USA.gov is the U.S. government's official web portal to all federal, state and local government web resources and services.